Weather History for EHRD - August, 2013

Change the Weather History Date:

Saturday, August 31, 2013

  Actual Average Record
Temperature  
Mean Temperature 60 °F -  
Max Temperature 68 °F 64 °F 84 °F (2005)
Min Temperature 50 °F 51 °F 44 °F (1998)
Degree Days  
Heating Degree Days 6    
Growing Degree Days 10 (Base 50)    
Moisture  
Dew Point 56 °F    
Average Humidity 77    
Maximum Humidity 94    
Minimum Humidity 55    
Precipitation  
Precipitation 0.03 in - - ()
Sea Level Pressure  
Sea Level Pressure 30.16 in    
Wind  
Wind Speed 9 mph ()    
Max Wind Speed 14 mph    
Max Gust Speed -    
Visibility 6.8 miles    
Events Rain    
Averages and records for this station are not official NWS values.
T = Trace of Precipitation, MM = Missing Value Source: Averaged Metar Reports

Daily Weather History Graph

Daily Weather History Graph

Search for Another Location

Airport or City:

Trip Planner

Search our weather history database for the weather conditions in past years. The results will help you decide how hot, cold, wet, or windy it might be!

Date:

Astronomy

Aug. 31, 2013 Rise Set
Actual Time 6:52 AM CEST 8:31 PM CEST
Civil Twilight 6:17 AM CEST 9:06 PM CEST
Nautical Twilight 5:33 AM CEST 9:50 PM CEST
Astronomical Twilight 4:44 AM CEST 10:38 PM CEST
Moon 1:45 AM CEST (8/31) 5:38 PM CEST (8/31)
Length of Visible Light 14h 49m
Length of Day
13h 38m
Waning Crescent, 23% of the Moon is Illuminated
Aug 31
Waning Crescent
Sep 5
New
Sep 12
First Quarter
Sep 19
Full
Sep 27
Last Quarter

Hourly Weather History & Observations

Time (CEST) Temp. Dew Point Humidity Pressure Visibility Wind Dir Wind Speed Gust Speed Precip Events Conditions
12:25 AM 62.6 °F 59.0 °F 88% 30.06 in 6.2 mi SW 10.4 mph - N/A   Unknown
12:55 AM 62.6 °F 59.0 °F 88% 30.06 in 6.2 mi SW 8.1 mph - N/A   Partly Cloudy
1:25 AM 64.4 °F 60.8 °F 88% 30.06 in 6.2 mi WSW 11.5 mph - N/A   Partly Cloudy
1:55 AM 64.4 °F 60.8 °F 88% 30.06 in 6.2 mi SW 11.5 mph - N/A   Mostly Cloudy
2:00 AM 63 °F 60 °F 88% 30.09 in 11 mi SW 8.9 mph - -   Partly Cloudy
2:25 AM 64.4 °F 60.8 °F 88% 30.06 in 6.2 mi SW 8.1 mph - N/A   Overcast
2:55 AM 64.4 °F 60.8 °F 88% 30.06 in 6.2 mi SW 9.2 mph - N/A   Overcast
3:25 AM 64.4 °F 62.6 °F 94% 30.06 in 6.2 mi SW 10.4 mph - N/A   Mostly Cloudy
3:55 AM 64.4 °F 60.8 °F 88% 30.06 in 6.2 mi SSW 6.9 mph - N/A   Overcast
4:25 AM 64.4 °F 60.8 °F 88% 30.06 in 6.2 mi SSW 6.9 mph - N/A   Overcast
4:55 AM 64.4 °F 62.6 °F 94% 30.06 in 6.2 mi SW 8.1 mph - N/A   Overcast
5:00 AM 65 °F 63 °F 90% 30.08 in 7 mi WSW 6.7 mph - -   Overcast
5:25 AM 66.2 °F 62.6 °F 88% 30.06 in 6.2 mi West 5.8 mph - N/A   Mostly Cloudy
5:55 AM 64.4 °F 62.6 °F 94% 30.06 in 6.2 mi Variable 2.3 mph - N/A   Overcast
6:25 AM 64.4 °F 62.6 °F 94% 30.06 in 6.2 mi WNW 3.5 mph - N/A   Mostly Cloudy
6:55 AM 64.4 °F 60.8 °F 88% 30.06 in 6.2 mi NW 6.9 mph - N/A   Overcast
7:25 AM 64.4 °F 60.8 °F 88% 30.09 in 6.2 mi NNW 9.2 mph - N/A   Mostly Cloudy
7:55 AM 64.4 °F 60.8 °F 88% 30.09 in 6.2 mi NNW 6.9 mph - N/A   Scattered Clouds
8:00 AM 65 °F 60 °F 81% 30.11 in 15 mi NNW 6.7 mph - -   Partly Cloudy
8:25 AM 64.4 °F 60.8 °F 88% 30.09 in 6.2 mi NNW 8.1 mph - N/A   Overcast
8:55 AM 64.4 °F 60.8 °F 88% 30.12 in 6.2 mi NNW 9.2 mph - N/A   Overcast
9:25 AM 64.4 °F 59.0 °F 83% 30.12 in 6.2 mi NNW 9.2 mph - N/A   Mostly Cloudy
9:55 AM 62.6 °F 60.8 °F 94% 30.12 in 6.2 mi NNW 8.1 mph - N/A Rain Light Rain
10:25 AM 64.4 °F 60.8 °F 88% 30.15 in 6.2 mi NNW 12.7 mph - N/A   Mostly Cloudy
10:55 AM 64.4 °F 59.0 °F 83% 30.15 in 6.2 mi NNW 11.5 mph - N/A   Overcast
11:00 AM 65 °F 59 °F 76% 30.17 in 8 mi NNW 11.2 mph - - Rain Drizzle
11:25 AM 64.4 °F 57.2 °F 77% 30.15 in 6.2 mi NW 11.5 mph - N/A   Overcast
11:55 AM 66.2 °F 57.2 °F 73% 30.15 in 6.2 mi NW 11.5 mph - N/A   Mostly Cloudy
12:25 PM 66.2 °F 57.2 °F 73% 30.15 in 6.2 mi NNW 12.7 mph - N/A   Unknown
12:55 PM 66.2 °F 55.4 °F 68% 30.18 in 6.2 mi NW 10.4 mph - N/A   Mostly Cloudy
1:25 PM 66.2 °F 53.6 °F 64% 30.18 in 6.2 mi NW 10.4 mph - N/A   Unknown
1:55 PM 66.2 °F 53.6 °F 64% 30.18 in 6.2 mi NW 11.5 mph - N/A   Mostly Cloudy
2:00 PM 66 °F 54 °F 55% 30.21 in 12 mi NW 13.4 mph - -   Partly Cloudy
2:25 PM 68.0 °F 53.6 °F 60% 30.18 in 6.2 mi NW 12.7 mph - N/A   Partly Cloudy
2:55 PM 66.2 °F 51.8 °F 60% 30.18 in 6.2 mi NW 10.4 mph - N/A   Mostly Cloudy
3:25 PM 66.2 °F 53.6 °F 64% 30.21 in 6.2 mi NW 11.5 mph - N/A   Mostly Cloudy
3:55 PM 66.2 °F 55.4 °F 68% 30.21 in 6.2 mi NW 11.5 mph - N/A   Mostly Cloudy
4:25 PM 66.2 °F 53.6 °F 64% 30.21 in 6.2 mi NNW 12.7 mph - N/A   Partly Cloudy
4:55 PM 64.4 °F 51.8 °F 64% 30.21 in 6.2 mi NNW 12.7 mph - N/A   Mostly Cloudy
5:00 PM 65 °F 53 °F 57% 30.24 in 12 mi NNW 13.4 mph - -   Scattered Clouds
5:25 PM 64.4 °F 53.6 °F 68% 30.24 in 6.2 mi NNW 13.8 mph - N/A   Mostly Cloudy
5:55 PM 64.4 °F 51.8 °F 64% 30.24 in 6.2 mi NNW 13.8 mph - N/A   Partly Cloudy
6:25 PM 62.6 °F 51.8 °F 68% 30.24 in 6.2 mi NNW 13.8 mph - N/A   Scattered Clouds
6:55 PM 62.6 °F 51.8 °F 68% 30.24 in 6.2 mi NNW 10.4 mph - N/A   Scattered Clouds
7:25 PM 60.8 °F 50.0 °F 68% 30.24 in 6.2 mi NNW 11.5 mph - N/A   Mostly Cloudy
7:55 PM 60.8 °F 50.0 °F 68% 30.27 in 6.2 mi NNW 9.2 mph - N/A   Scattered Clouds
8:00 PM 59 °F 50 °F 63% 30.28 in 12 mi NW 11.2 mph - -   Partly Cloudy
8:25 PM 57.2 °F 48.2 °F 72% 30.27 in 6.2 mi NW 8.1 mph - N/A   Unknown
8:55 PM 57.2 °F 46.4 °F 67% 30.27 in 6.2 mi NW 8.1 mph - N/A   Scattered Clouds
9:25 PM 55.4 °F 46.4 °F 72% 30.27 in 6.2 mi NW 4.6 mph - N/A   Mostly Cloudy
9:55 PM 55.4 °F 46.4 °F 72% 30.30 in 6.2 mi NW 4.6 mph - N/A   Scattered Clouds
10:25 PM 55.4 °F 46.4 °F 72% 30.30 in 6.2 mi NW 9.2 mph - N/A   Scattered Clouds
10:55 PM 51.8 °F 44.6 °F 76% 30.30 in 6.2 mi NW 5.8 mph - N/A   Unknown
11:25 PM 51.8 °F 42.8 °F 71% 30.30 in 6.2 mi NW 4.6 mph - N/A   Unknown
11:55 PM 50.0 °F 42.8 °F 76% 30.30 in 6.2 mi NW 3.5 mph - N/A   Unknown